STARLINK-32394, 61853

Orbit data source: Space-Track

STARLINK-32394, 61853 is a payload satellite owned by SpaceX/Seattle (US) in LEO that was launched on Thu, 07 Nov 2024 UTC via an FALCON 9 launch vehicle from the Air Force Eastern Test Range (AFETR). Payload-class satellites include a variety of spacecraft equipped with specific instruments for various scientific and technological missions. These include communications satellites like Starlink; space stations such as the ISS; scientific satellites like the Hubble; Earth observation satellites from companies like Planet Labs, Umbra, and HawkEye 360; GPS; miniature CubeSats for education and research; and military/defense satellites.

Loading next visibility...
Identifier
61853, 2024-202J
Orbit
LEO
Last TLE update
1 day ago
Origin
Manufacturer
SpaceX/Seattle
Mission
Operational Commercial Communications
Bus & Motor
STARLINK V2M, Unknown motor
Mass
730 kg wet, ~700 kg dry
Launch date (UTC)
2024-11-07 (8 months ago)
Launch vehicle
FALCON 9
Launch site
Air Force Eastern Test Range (AFETR)
Object type
Payload
Rocket body
Debris
Shape & HBR
Box + 2 Pan, 29 m
Radar Cross Section
33.884 m², Large (>1 m²)

Expand to show TLE details & history

TLE from 1 day ago
0 STARLINK-32394
1 61853U 24202J   25181.18565457  .00000146  00000-0  14830-4 0  9992
2 61853  43.0018 223.7195 0001672 270.3699  89.6961 15.27576318 36713
Epoch: 2025-06-30T04:27Z
TLE epoch observation values (Epoch: 2025-06-30T04:27:20.554Z)
Latitude
-0.00004°
Longitude
-121.61527°
Altitude
482.83 km
Speed
7.626 km/s
True Right ascension
14h 54m 52s
True Declination
0° 00' 00"
Sunlit
Object was in full shadow at epoch
Visualization orbit readout
Latitude
39.97599°
Longitude
-11.02383°
Altitude
486.638 km
Speed
7.627 km/s
Apparent Right ascension
01h 46m 46s
Apparent Declination
3° 08' 43"
Sunlit
Object is in daylight
Visualization observer readout
Local Sidereal Time
17:40:21
Azimuth
66.045° ENE
Elevation
-21.476°
Doppler factor
1
Orbital elements
Apogee altitude
486.153 km
Perigee altitude
483.857 km
Semi-major axis
6,863.142 km
Eccentricity
0.00017
Inclination
43.0018°
RAAN
223.7195°
Arg. of periapsis
270.3699°
True anomaly
Unknown
Mean anomaly
89.6961°
Eccentric anomaly
Unknown
Mean motion
3.81732 °/min
Orbital period
94.31 mins
BSTAR
0.00001483
Loading maneuver chart data...
Loading SW <> Apogee altitude chart data...
Loading historical data...
Loading historical data...
Loading historical data...
Loading historical data...
Loading historical data...
Loading historical data...
Loading historical data...

STARLINK-32394 Visibility forecast

Observer location: undefined°, undefined°

Span
Click to sort rows by Start time (UTC) header in descending order
Start Az.
Max El. time (UTC)
Max El. Az.
Max El.
End time (UTC)
End Az.
7 mins2025-07-01 07:23:37.515Z259.255° W2025-07-01 07:27:37.515Z27.627° NE42.976°2025-07-01 07:30:37.515Z70.222° E
5 mins2025-07-01 09:04:37.515Z296.572° NW2025-07-01 09:06:37.515Z9.707° NNE38.213°2025-07-01 09:09:37.515Z78.497° E
5 mins2025-07-01 10:43:37.515Z284.649° WNW2025-07-01 10:45:37.515Z201.024° SSW44.545°2025-07-01 10:48:37.515Z114.83° SE
4 mins2025-07-01 12:22:37.515Z247.306° WSW2025-07-01 12:24:37.515Z206.714° SW17.689°2025-07-01 12:26:37.515Z172.867° S
5 mins2025-07-02 05:18:37.515Z200.677° SSW2025-07-02 05:20:37.515Z155.324° SSE26.804°2025-07-02 05:23:37.515Z90.102° ESE
|